| time (UTC) | temp F | wind direction | speed MPH | gust MPH | rain 1hr in | rain 24hr in | rain mn in | humidity % | barometer mb |
| 20260902142705 | 87 | 78 | 0.0 | 1.0 | 0.00 | 0.00 | 0.00 | 73 | 1025.3 |
| 20260902142157 | 87 | 78 | 1.0 | 2.0 | 0.00 | 0.00 | 0.00 | 77 | 1025.3 |
| 20260902141652 | 86 | 46 | 2.0 | 2.0 | 0.00 | 0.00 | 0.00 | 78 | 1025.1 |
| 20260902141147 | 86 | 31 | 0.0 | 1.0 | 0.00 | 0.00 | 0.00 | 79 | 1025.3 |
| 20260902140642 | 85 | 303 | 2.0 | 3.0 | 0.00 | 0.00 | 0.00 | 80 | 1025.3 |
| 20260902140137 | 85 | 62 | 2.0 | 2.0 | 0.00 | 0.00 | 0.00 | 80 | 1025.2 |
| 20260902135636 | 85 | 341 | 3.0 | 3.0 | 0.00 | 0.00 | 0.00 | 80 | 1025.3 |
| 20260902135132 | 86 | 96 | 1.0 | 2.0 | 0.00 | 0.00 | 0.00 | 82 | 1025.2 |
| 20260902134627 | 85 | 96 | 1.0 | 2.0 | 0.00 | 0.00 | 0.00 | 81 | 1025.2 |
| 20260902134122 | 84 | 40 | 2.0 | 3.0 | 0.00 | 0.00 | 0.00 | 83 | 1025.2 |
| 20260902133621 | 85 | 89 | 1.0 | 2.0 | 0.00 | 0.00 | 0.00 | 85 | 1025.2 |
| 20260902133116 | 84 | 118 | 0.0 | 3.0 | 0.00 | 0.00 | 0.00 | 85 | 1025.3 |
| 20260902132617 | 84 | 112 | 1.0 | 2.0 | 0.00 | 0.00 | 0.00 | 87 | 1025.3 |
| 20260902132112 | 83 | 91 | 0.0 | 1.0 | 0.00 | 0.00 | 0.00 | 88 | 1025.4 |
| 20260902131608 | 83 | 96 | 1.0 | 2.0 | 0.00 | 0.00 | 0.00 | 90 | 1025.1 |
| 20260902131103 | 82 | 103 | 1.0 | 1.0 | 0.00 | 0.00 | 0.00 | 92 | 1025.2 |
| 20260902130559 | 81 | 151 | 0.0 | 2.0 | 0.00 | 0.00 | 0.00 | 95 | 1025.1 |
| 20260902130054 | 80 | 107 | 1.0 | 1.0 | 0.00 | 0.00 | 0.00 | 97 | 1025.2 |
| 20260902125550 | 80 | 109 | 1.0 | 1.0 | 0.00 | 0.00 | 0.00 | 99 | 1025.3 |
| 20260902125045 | 79 | 63 | 2.0 | 2.0 | 0.00 | 0.00 | 0.00 | 99 | 1025.3 |
| 20260902124542 | 79 | 102 | 1.0 | 1.0 | 0.00 | 0.00 | 0.00 | 99 | 1025.2 |
| 20260902124037 | 78 | 108 | 1.0 | 2.0 | 0.00 | 0.00 | 0.00 | 99 | 1025.1 |
| 20260902123532 | 77 | 114 | 0.0 | 1.0 | 0.00 | 0.00 | 0.00 | 99 | 1025.0 |
| 20260902123026 | 77 | 114 | 0.0 | 1.0 | 0.00 | 0.00 | 0.00 | 99 | 1025.0 |
| 20260902122520 | 76 | 120 | 0.0 | 1.0 | 0.00 | 0.00 | 0.00 | 99 | 1025.1 |
| 20260902122016 | 76 | 119 | 0.0 | 0.0 | 0.00 | 0.00 | 0.00 | 99 | 1025.3 |
| 20260902121510 | 76 | 119 | 0.0 | 0.0 | 0.00 | 0.00 | 0.00 | 99 | 1025.1 |
| 20260902121010 | 76 | 119 | 0.0 | 0.0 | 0.00 | 0.00 | 0.00 | 99 | 1025.1 |
| 20260902120508 | 75 | 119 | 0.0 | 0.0 | 0.00 | 0.00 | 0.00 | 99 | 1025.2 |
| 20260902120003 | 75 | 119 | 0.0 | 0.0 | 0.00 | 0.00 | 0.00 | 99 | 1025.1 |
| 20260902115458 | 74 | 119 | 0.0 | 0.0 | 0.00 | 0.00 | 0.00 | 99 | 1025.2 |
| 20260902114955 | 74 | 119 | 0.0 | 0.0 | 0.00 | 0.00 | 0.00 | 99 | 1025.2 |
| 20260902114450 | 74 | 119 | 0.0 | 0.0 | 0.00 | 0.00 | 0.00 | 99 | 1025.2 |
| 20260902113945 | 74 | 119 | 0.0 | 0.0 | 0.00 | 0.00 | 0.00 | 99 | 1025.2 |
| 20260902113441 | 73 | 119 | 0.0 | 0.0 | 0.00 | 0.00 | 0.00 | 99 | 1025.1 |
| 20260902112939 | 73 | 119 | 0.0 | 1.0 | 0.00 | 0.00 | 0.00 | 99 | 1025.0 |
| 20260902112435 | 73 | 121 | 1.0 | 1.0 | 0.00 | 0.00 | 0.00 | 99 | 1025.1 |
| 20260902111931 | 73 | 122 | 0.0 | 0.0 | 0.00 | 0.00 | 0.00 | 99 | 1024.9 |
| 20260902111428 | 73 | 123 | 0.0 | 0.0 | 0.00 | 0.00 | 0.00 | 99 | 1025.0 |
| 20260902110923 | 73 | 123 | 0.0 | 1.0 | 0.00 | 0.00 | 0.00 | 99 | 1024.9 |
| 20260902110420 | 73 | 123 | 1.0 | 1.0 | 0.00 | 0.00 | 0.00 | 99 | 1024.7 |
| 20260902105919 | 73 | 122 | 0.0 | 0.0 | 0.00 | 0.00 | 0.00 | 99 | 1024.7 |
| 20260902105414 | 73 | 122 | 0.0 | 0.0 | 0.00 | 0.00 | 0.00 | 99 | 1024.5 |
| 20260902104909 | 73 | 122 | 0.0 | 0.0 | 0.00 | 0.00 | 0.00 | 99 | 1024.7 |
| 20260902104405 | 73 | 122 | 0.0 | 0.0 | 0.00 | 0.00 | 0.00 | 99 | 1024.7 |
| 20260902103905 | 73 | 122 | 0.0 | 0.0 | 0.00 | 0.00 | 0.00 | 99 | 1024.7 |
| 20260902103354 | 73 | 122 | 0.0 | 0.0 | 0.00 | 0.00 | 0.00 | 99 | 1024.6 |
| 20260902102854 | 73 | 122 | 0.0 | 1.0 | 0.00 | 0.00 | 0.00 | 99 | 1024.7 |
| 20260902102353 | 73 | 122 | 0.0 | 1.0 | 0.00 | 0.00 | 0.00 | 99 | 1024.7 |
| 20260902101848 | 73 | 124 | 0.0 | 0.0 | 0.00 | 0.00 | 0.00 | 99 | 1024.6 |
| 20260902101343 | 73 | 124 | 0.0 | 0.0 | 0.00 | 0.00 | 0.00 | 99 | 1024.6 |
| 20260902100836 | 73 | 124 | 0.0 | 0.0 | 0.00 | 0.00 | 0.00 | 99 | 1024.4 |
| 20260902100330 | 73 | 124 | 0.0 | 0.0 | 0.00 | 0.00 | 0.00 | 99 | 1024.7 |
| 20260902095825 | 73 | 124 | 0.0 | 0.0 | 0.00 | 0.00 | 0.00 | 99 | 1024.3 |
| 20260902095320 | 73 | 124 | 0.0 | 0.0 | 0.00 | 0.00 | 0.00 | 99 | 1024.2 |
| 20260902094814 | 73 | 124 | 0.0 | 0.0 | 0.00 | 0.00 | 0.00 | 99 | 1024.3 |
| 20260902094311 | 73 | 124 | 0.0 | 0.0 | 0.00 | 0.00 | 0.00 | 99 | 1024.5 |
| 20260902093810 | 73 | 124 | 0.0 | 0.0 | 0.00 | 0.00 | 0.00 | 99 | 1024.4 |
| 20260902093305 | 73 | 124 | 0.0 | 0.0 | 0.00 | 0.00 | 0.00 | 99 | 1024.4 |
| 20260902092804 | 73 | 123 | 0.0 | 0.0 | 0.00 | 0.00 | 0.00 | 99 | 1024.4 |
| 20260902092300 | 73 | 123 | 0.0 | 0.0 | 0.00 | 0.00 | 0.00 | 99 | 1024.4 |
| 20260902091759 | 73 | 123 | 0.0 | 0.0 | 0.00 | 0.00 | 0.00 | 99 | 1024.3 |
| 20260902091255 | 73 | 123 | 0.0 | 0.0 | 0.00 | 0.00 | 0.00 | 99 | 1024.3 |
| 20260902090752 | 73 | 123 | 0.0 | 0.0 | 0.00 | 0.00 | 0.00 | 99 | 1024.4 |
| 20260902090251 | 73 | 123 | 0.0 | 0.0 | 0.00 | 0.00 | 0.00 | 99 | 1024.3 |
| 20260902085750 | 73 | 123 | 0.0 | 0.0 | 0.00 | 0.00 | 0.00 | 99 | 1024.0 |
| 20260902085246 | 74 | 123 | 0.0 | 0.0 | 0.00 | 0.00 | 0.00 | 99 | 1024.2 |
| 20260902084742 | 74 | 123 | 0.0 | 0.0 | 0.00 | 0.00 | 0.00 | 99 | 1024.0 |
| 20260902084238 | 74 | 123 | 0.0 | 0.0 | 0.00 | 0.00 | 0.00 | 99 | 1024.1 |
| 20260902083737 | 73 | 123 | 0.0 | 0.0 | 0.00 | 0.00 | 0.00 | 99 | 1024.1 |
| 20260902083232 | 73 | 123 | 0.0 | 0.0 | 0.00 | 0.00 | 0.00 | 99 | 1024.0 |
| 20260902082727 | 73 | 123 | 0.0 | 0.0 | 0.00 | 0.00 | 0.00 | 99 | 1024.0 |
| 20260902082224 | 73 | 123 | 0.0 | 0.0 | 0.00 | 0.00 | 0.00 | 99 | 1023.9 |
| 20260902081720 | 73 | 123 | 0.0 | 0.0 | 0.00 | 0.00 | 0.00 | 99 | 1023.9 |
| 20260902081215 | 73 | 123 | 0.0 | 0.0 | 0.00 | 0.00 | 0.00 | 99 | 1023.8 |
| 20260902080710 | 74 | 123 | 0.0 | 0.0 | 0.00 | 0.00 | 0.00 | 99 | 1024.0 |
| 20260902080207 | 74 | 123 | 0.0 | 0.0 | 0.00 | 0.00 | 0.00 | 99 | 1023.8 |
| 20260902075706 | 74 | 123 | 0.0 | 0.0 | 0.00 | 0.00 | 0.00 | 99 | 1023.9 |
| 20260902075203 | 74 | 123 | 0.0 | 0.0 | 0.00 | 0.00 | 0.00 | 99 | 1023.6 |
| 20260902074703 | 74 | 123 | 0.0 | 0.0 | 0.00 | 0.00 | 0.00 | 99 | 1023.7 |
| 20260902074158 | 74 | 123 | 0.0 | 0.0 | 0.00 | 0.00 | 0.00 | 99 | 1023.6 |
| 20260902073653 | 74 | 123 | 0.0 | 0.0 | 0.00 | 0.00 | 0.00 | 99 | 1023.7 |
| 20260902073149 | 74 | 123 | 0.0 | 0.0 | 0.00 | 0.00 | 0.00 | 99 | 1023.7 |
| 20260902072645 | 74 | 123 | 0.0 | 0.0 | 0.00 | 0.00 | 0.00 | 99 | 1023.5 |
| 20260902072141 | 74 | 123 | 0.0 | 0.0 | 0.00 | 0.00 | 0.00 | 99 | 1023.5 |
| 20260902071637 | 74 | 123 | 0.0 | 0.0 | 0.00 | 0.00 | 0.00 | 99 | 1023.6 |
| 20260902071132 | 74 | 123 | 0.0 | 0.0 | 0.00 | 0.00 | 0.00 | 99 | 1023.7 |
| 20260902070628 | 74 | 123 | 0.0 | 0.0 | 0.00 | 0.00 | 0.00 | 99 | 1023.6 |
| 20260902070127 | 74 | 123 | 1.0 | 1.0 | 0.00 | 0.00 | 0.00 | 99 | 1023.6 |
| 20260902065626 | 75 | 122 | 0.0 | 0.0 | 0.00 | 0.00 | 0.00 | 99 | 1023.7 |
| 20260902065122 | 75 | 122 | 0.0 | 0.0 | 0.00 | 0.00 | 0.00 | 99 | 1023.7 |
| 20260902064618 | 75 | 115 | 1.0 | 1.0 | 0.00 | 0.00 | 0.00 | 99 | 1023.9 |
| 20260902064113 | 74 | 148 | 1.0 | 1.0 | 0.00 | 0.00 | 0.00 | 99 | 1023.9 |
| 20260902063608 | 74 | 149 | 0.0 | 0.0 | 0.00 | 0.00 | 0.00 | 99 | 1023.6 |
| 20260902063103 | 75 | 149 | 0.0 | 0.0 | 0.00 | 0.00 | 0.00 | 98 | 1023.5 |
| 20260902062601 | 75 | 149 | 0.0 | 0.0 | 0.00 | 0.00 | 0.00 | 98 | 1023.8 |
| 20260902062057 | 75 | 149 | 0.0 | 0.0 | 0.00 | 0.00 | 0.00 | 98 | 1023.8 |
| 20260902061557 | 75 | 149 | 1.0 | 1.0 | 0.00 | 0.00 | 0.00 | 98 | 1023.8 |
| 20260902061053 | 75 | 149 | 0.0 | 0.0 | 0.00 | 0.00 | 0.00 | 98 | 1024.0 |
| 20260902060549 | 75 | 149 | 0.0 | 0.0 | 0.00 | 0.00 | 0.00 | 98 | 1023.8 |
| 20260902060045 | 75 | 149 | 0.0 | 1.0 | 0.00 | 0.00 | 0.00 | 98 | 1024.0 |
| 20260902055541 | 75 | 149 | 0.0 | 1.0 | 0.00 | 0.00 | 0.00 | 98 | 1024.0 |
| 20260902055036 | 75 | 149 | 0.0 | 0.0 | 0.00 | 0.00 | 0.00 | 98 | 1024.3 |
| 20260902054531 | 75 | 149 | 0.0 | 0.0 | 0.00 | 0.00 | 0.00 | 98 | 1024.1 |
| 20260902054027 | 75 | 150 | 0.0 | 0.0 | 0.00 | 0.00 | 0.00 | 98 | 1024.2 |
| 20260902053521 | 75 | 150 | 0.0 | 1.0 | 0.00 | 0.00 | 0.00 | 97 | 1024.3 |
| 20260902053016 | 75 | 150 | 1.0 | 1.0 | 0.00 | 0.00 | 0.00 | 97 | 1024.1 |
| 20260902052510 | 75 | 149 | 1.0 | 1.0 | 0.00 | 0.00 | 0.00 | 97 | 1024.1 |
| 20260902052006 | 76 | 149 | 0.0 | 0.0 | 0.00 | 0.00 | 0.00 | 97 | 1024.2 |
| 20260902051505 | 76 | 149 | 0.0 | 0.0 | 0.00 | 0.00 | 0.00 | 97 | 1024.1 |
| 20260902051004 | 76 | 149 | 1.0 | 1.0 | 0.00 | 0.00 | 0.00 | 97 | 1024.3 |
| 20260902050459 | 76 | 150 | 0.0 | 0.0 | 0.00 | 0.00 | 0.00 | 97 | 1024.2 |
| 20260902045954 | 76 | 150 | 0.0 | 0.0 | 0.00 | 0.00 | 0.00 | 96 | 1024.1 |
| 20260902045450 | 76 | 150 | 0.0 | 0.0 | 0.00 | 0.00 | 0.00 | 96 | 1024.2 |
| 20260902044946 | 76 | 150 | 0.0 | 0.0 | 0.00 | 0.00 | 0.00 | 96 | 1024.2 |
| 20260902044441 | 76 | 150 | 0.0 | 0.0 | 0.00 | 0.00 | 0.00 | 96 | 1024.4 |
| 20260902043937 | 76 | 150 | 0.0 | 1.0 | 0.00 | 0.00 | 0.00 | 96 | 1024.4 |
| 20260902043437 | 76 | 151 | 0.0 | 1.0 | 0.00 | 0.00 | 0.00 | 96 | 1024.5 |
| 20260902042932 | 77 | 151 | 1.0 | 1.0 | 0.00 | 0.00 | 0.00 | 96 | 1024.3 |
| 20260902042431 | 77 | 148 | 1.0 | 1.0 | 0.00 | 0.00 | 0.00 | 96 | 1024.3 |
| 20260902041927 | 77 | 147 | 0.0 | 1.0 | 0.00 | 0.00 | 0.00 | 95 | 1024.1 |
| 20260902041421 | 77 | 147 | 0.0 | 0.0 | 0.00 | 0.00 | 0.00 | 95 | 1024.3 |
| 20260902040920 | 77 | 147 | 0.0 | 0.0 | 0.00 | 0.00 | 0.00 | 95 | 1024.4 |
| 20260902040415 | 77 | 147 | 0.0 | 0.0 | 0.00 | 0.00 | 0.00 | 95 | 1024.4 |
| 20260902035915 | 77 | 147 | 0.0 | 0.0 | 0.00 | 0.01 | 0.01 | 95 | 1024.4 |
| 20260902035410 | 77 | 147 | 0.0 | 0.0 | 0.00 | 0.01 | 0.01 | 95 | 1024.4 |
| 20260902034909 | 77 | 147 | 0.0 | 0.0 | 0.00 | 0.01 | 0.01 | 94 | 1024.3 |
| 20260902034404 | 78 | 148 | 1.0 | 1.0 | 0.00 | 0.01 | 0.01 | 94 | 1024.4 |
| 20260902033902 | 78 | 146 | 1.0 | 1.0 | 0.00 | 0.01 | 0.01 | 93 | 1024.5 |
| 20260902033357 | 78 | 145 | 0.0 | 0.0 | 0.00 | 0.01 | 0.01 | 93 | 1024.4 |
| 20260902032856 | 78 | 145 | 0.0 | 0.0 | 0.00 | 0.01 | 0.01 | 93 | 1024.4 |
| 20260902032350 | 78 | 156 | 1.0 | 2.0 | 0.00 | 0.01 | 0.01 | 93 | 1024.4 |
| 20260902031845 | 78 | 168 | 2.0 | 2.0 | 0.00 | 0.01 | 0.01 | 92 | 1024.4 |
| 20260902031341 | 78 | 174 | 2.0 | 3.0 | 0.00 | 0.01 | 0.01 | 92 | 1024.5 |
| 20260902030836 | 78 | 172 | 1.0 | 2.0 | 0.00 | 0.01 | 0.01 | 92 | 1024.3 |
| 20260902030331 | 78 | 154 | 1.0 | 2.0 | 0.00 | 0.01 | 0.01 | 92 | 1024.4 |
| 20260902025830 | 79 | 163 | 2.0 | 2.0 | 0.00 | 0.01 | 0.01 | 92 | 1024.4 |
| 20260902025326 | 79 | 151 | 1.0 | 2.0 | 0.00 | 0.01 | 0.01 | 91 | 1024.4 |
| 20260902024820 | 79 | 156 | 3.0 | 5.0 | 0.00 | 0.01 | 0.01 | 91 | 1024.2 |
| 20260902024316 | 79 | 149 | 1.0 | 2.0 | 0.00 | 0.01 | 0.01 | 91 | 1024.2 |
| 20260902023811 | 79 | 145 | 1.0 | 2.0 | 0.00 | 0.01 | 0.01 | 91 | 1024.3 |
| 20260902023307 | 80 | 163 | 2.0 | 2.0 | 0.00 | 0.01 | 0.01 | 90 | 1024.2 |
| 20260902022806 | 80 | 161 | 1.0 | 2.0 | 0.00 | 0.01 | 0.01 | 90 | 1024.2 |
| 20260902022302 | 80 | 168 | 1.0 | 3.0 | 0.00 | 0.01 | 0.01 | 90 | 1023.9 |
| 20260902021757 | 80 | 178 | 2.0 | 3.0 | 0.00 | 0.01 | 0.01 | 91 | 1024.3 |
| 20260902021251 | 80 | 168 | 3.0 | 5.0 | 0.00 | 0.01 | 0.01 | 91 | 1024.1 |
| 20260902020747 | 80 | 167 | 2.0 | 5.0 | 0.00 | 0.01 | 0.01 | 90 | 1024.3 |
| 20260902020243 | 80 | 183 | 4.0 | 5.0 | 0.00 | 0.01 | 0.01 | 91 | 1024.2 |
| 20260902015738 | 80 | 160 | 2.0 | 3.0 | 0.00 | 0.01 | 0.01 | 90 | 1024.0 |
| 20260902015235 | 80 | 174 | 2.0 | 3.0 | 0.00 | 0.01 | 0.01 | 89 | 1024.0 |
| 20260902014730 | 80 | 172 | 3.0 | 5.0 | 0.00 | 0.01 | 0.01 | 90 | 1023.9 |
| 20260902014227 | 80 | 163 | 2.0 | 2.0 | 0.00 | 0.01 | 0.01 | 89 | 1024.0 |
| 20260902013724 | 80 | 185 | 3.0 | 5.0 | 0.00 | 0.01 | 0.01 | 89 | 1024.0 |
| 20260902013220 | 80 | 176 | 3.0 | 5.0 | 0.00 | 0.01 | 0.01 | 89 | 1023.8 |
| 20260902012715 | 79 | 164 | 1.0 | 2.0 | 0.00 | 0.01 | 0.01 | 90 | 1023.6 |
| 20260902012212 | 79 | 164 | 1.0 | 1.0 | 0.00 | 0.01 | 0.01 | 89 | 1023.7 |
| 20260902011707 | 79 | 164 | 0.0 | 1.0 | 0.00 | 0.01 | 0.01 | 89 | 1023.6 |
| 20260902011206 | 79 | 157 | 0.0 | 0.0 | 0.00 | 0.01 | 0.01 | 89 | 1023.4 |
| 20260902010700 | 79 | 157 | 0.0 | 0.0 | 0.00 | 0.01 | 0.01 | 89 | 1023.5 |
| 20260902010156 | 79 | 157 | 0.0 | 0.0 | 0.00 | 0.01 | 0.01 | 88 | 1023.3 |
| 20260902005654 | 79 | 157 | 0.0 | 0.0 | 0.00 | 0.01 | 0.01 | 88 | 1023.5 |
| 20260902005150 | 80 | 157 | 0.0 | 0.0 | 0.00 | 0.01 | 0.01 | 87 | 1023.2 |
| 20260902004649 | 80 | 157 | 0.0 | 1.0 | 0.00 | 0.01 | 0.01 | 87 | 1023.4 |
| 20260902004145 | 79 | 157 | 0.0 | 1.0 | 0.00 | 0.01 | 0.01 | 87 | 1023.2 |
| 20260902003640 | 80 | 158 | 1.0 | 3.0 | 0.00 | 0.01 | 0.01 | 88 | 1023.0 |
| 20260902003136 | 81 | 144 | 0.0 | 0.0 | 0.00 | 0.01 | 0.01 | 85 | 1022.8 |
| 20260902002631 | 81 | 144 | 0.0 | 0.0 | 0.00 | 0.01 | 0.01 | 84 | 1023.0 |
| 20260902002125 | 81 | 144 | 0.0 | 1.0 | 0.00 | 0.01 | 0.01 | 83 | 1022.9 |
| 20260902001620 | 81 | 144 | 0.0 | 0.0 | 0.00 | 0.01 | 0.01 | 83 | 1022.9 |
| 20260902001115 | 82 | 144 | 0.0 | 0.0 | 0.00 | 0.01 | 0.01 | 84 | 1022.9 |
| 20260902000610 | 83 | 144 | 0.0 | 0.0 | 0.00 | 0.01 | 0.01 | 83 | 1022.6 |
| 20260902000106 | 83 | 144 | 0.0 | 0.0 | 0.00 | 0.01 | 0.01 | 82 | 1022.9 |
| 20260901235604 | 84 | 144 | 0.0 | 1.0 | 0.00 | 0.01 | 0.01 | 80 | 1022.9 |
| 20260901235100 | 85 | 144 | 0.0 | 0.0 | 0.00 | 0.01 | 0.01 | 77 | 1022.9 |
| 20260901234558 | 85 | 144 | 0.0 | 0.0 | 0.00 | 0.01 | 0.01 | 77 | 1023.0 |
| 20260901234055 | 85 | 144 | 0.0 | 0.0 | 0.00 | 0.01 | 0.01 | 74 | 1022.8 |
| 20260901233554 | 87 | 144 | 0.0 | 0.0 | 0.00 | 0.01 | 0.01 | 76 | 1022.8 |
| 20260901233050 | 87 | 144 | 0.0 | 0.0 | 0.00 | 0.01 | 0.01 | 74 | 1022.9 |
| 20260901232545 | 88 | 144 | 0.0 | 0.0 | 0.00 | 0.01 | 0.01 | 73 | 1022.9 |
| 20260901232040 | 89 | 144 | 0.0 | 0.0 | 0.00 | 0.01 | 0.01 | 68 | 1023.0 |
| 20260901231537 | 91 | 144 | 0.0 | 1.0 | 0.00 | 0.01 | 0.01 | 66 | 1022.9 |
| 20260901231034 | 91 | 145 | 0.0 | 0.0 | 0.00 | 0.01 | 0.01 | 63 | 1023.0 |
| 20260901230533 | 92 | 145 | 0.0 | 0.0 | 0.00 | 0.01 | 0.01 | 63 | 1022.8 |
| 20260901230029 | 92 | 145 | 0.0 | 0.0 | 0.00 | 0.01 | 0.01 | 63 | 1023.1 |
| 20260901225524 | 91 | 144 | 0.0 | 1.0 | 0.00 | 0.01 | 0.01 | 64 | 1023.0 |
| 20260901225023 | 91 | 144 | 1.0 | 1.0 | 0.00 | 0.01 | 0.01 | 59 | 1022.8 |
| 20260901224519 | 91 | 115 | 0.0 | 1.0 | 0.00 | 0.01 | 0.01 | 60 | 1022.8 |
| 20260901224016 | 91 | 106 | 2.0 | 3.0 | 0.00 | 0.01 | 0.01 | 58 | 1022.9 |
| 20260901223511 | 93 | 131 | 3.0 | 3.0 | 0.00 | 0.01 | 0.01 | 57 | 1022.9 |
| 20260901223006 | 93 | 116 | 0.0 | 0.0 | 0.00 | 0.01 | 0.01 | 58 | 1022.9 |
| 20260901222502 | 93 | 113 | 1.0 | 1.0 | 0.00 | 0.01 | 0.01 | 56 | 1022.9 |
| 20260901221958 | 93 | 129 | 1.0 | 1.0 | 0.00 | 0.01 | 0.01 | 58 | 1022.9 |
| 20260901221454 | 92 | 163 | 1.0 | 2.0 | 0.00 | 0.01 | 0.01 | 60 | 1022.7 |
| 20260901220949 | 91 | 146 | 1.0 | 3.0 | 0.00 | 0.01 | 0.01 | 60 | 1022.7 |
| 20260901220448 | 92 | 156 | 3.0 | 5.0 | 0.00 | 0.01 | 0.01 | 61 | 1022.7 |
| 20260901215946 | 92 | 126 | 3.0 | 5.0 | 0.00 | 0.01 | 0.01 | 55 | 1022.6 |
| 20260901215444 | 93 | 96 | 2.0 | 3.0 | 0.00 | 0.01 | 0.01 | 60 | 1022.9 |
| 20260901214939 | 94 | 112 | 1.0 | 2.0 | 0.00 | 0.01 | 0.01 | 56 | 1022.9 |
| 20260901214437 | 93 | 146 | 0.0 | 3.0 | 0.00 | 0.01 | 0.01 | 55 | 1023.0 |
| 20260901213932 | 92 | 122 | 2.0 | 3.0 | 0.00 | 0.01 | 0.01 | 61 | 1022.9 |
| 20260901213427 | 93 | 108 | 1.0 | 3.0 | 0.00 | 0.01 | 0.01 | 59 | 1023.1 |
| 20260901212926 | 93 | 82 | 1.0 | 2.0 | 0.00 | 0.01 | 0.01 | 60 | 1023.0 |
| 20260901212421 | 93 | 78 | 0.0 | 1.0 | 0.00 | 0.01 | 0.01 | 59 | 1022.8 |
| 20260901211918 | 93 | 80 | 1.0 | 2.0 | 0.00 | 0.01 | 0.01 | 63 | 1023.0 |
| 20260901211414 | 93 | 102 | 1.0 | 2.0 | 0.00 | 0.01 | 0.01 | 62 | 1023.2 |
| 20260901210909 | 92 | 72 | 2.0 | 2.0 | 0.00 | 0.01 | 0.01 | 59 | 1023.2 |
| 20260901210405 | 93 | 124 | 1.0 | 2.0 | 0.00 | 0.01 | 0.01 | 58 | 1023.2 |
| 20260901205901 | 93 | 61 | 2.0 | 5.0 | 0.00 | 0.01 | 0.01 | 60 | 1023.1 |
| 20260901205355 | 93 | 128 | 5.0 | 7.0 | 0.00 | 0.01 | 0.01 | 59 | 1023.0 |
| 20260901204850 | 93 | 105 | 1.0 | 2.0 | 0.00 | 0.01 | 0.01 | 58 | 1023.3 |
| 20260901204347 | 93 | 83 | 1.0 | 3.0 | 0.00 | 0.01 | 0.01 | 58 | 1023.1 |
| 20260901203846 | 94 | 75 | 2.0 | 2.0 | 0.00 | 0.01 | 0.01 | 61 | 1023.2 |
| 20260901203341 | 93 | 84 | 1.0 | 2.0 | 0.00 | 0.01 | 0.01 | 62 | 1023.2 |
| 20260901202836 | 93 | 0 | 2.0 | 3.0 | 0.00 | 0.01 | 0.01 | 58 | 1023.3 |
| 20260901202330 | 92 | 132 | 5.0 | 6.0 | 0.00 | 0.01 | 0.01 | 57 | 1023.2 |
| 20260901201826 | 92 | 77 | 3.0 | 5.0 | 0.00 | 0.01 | 0.01 | 60 | 1023.1 |
| 20260901201326 | 92 | 327 | 2.0 | 5.0 | 0.00 | 0.01 | 0.01 | 62 | 1023.2 |
| 20260901200820 | 92 | 159 | 1.0 | 2.0 | 0.00 | 0.01 | 0.01 | 61 | 1023.2 |
| 20260901200315 | 90 | 117 | 0.0 | 1.0 | 0.00 | 0.01 | 0.01 | 65 | 1023.1 |
| 20260901195813 | 92 | 101 | 1.0 | 3.0 | 0.00 | 0.01 | 0.01 | 59 | 1023.2 |
| 20260901195307 | 94 | 329 | 2.0 | 3.0 | 0.00 | 0.01 | 0.01 | 59 | 1023.2 |
| 20260901194803 | 93 | 126 | 1.0 | 3.0 | 0.00 | 0.01 | 0.01 | 61 | 1023.1 |
| 20260901194258 | 92 | 174 | 4.0 | 6.0 | 0.00 | 0.01 | 0.01 | 59 | 1023.4 |
| 20260901193754 | 92 | 155 | 1.0 | 5.0 | 0.00 | 0.01 | 0.01 | 60 | 1023.4 |
| 20260901193252 | 93 | 84 | 1.0 | 3.0 | 0.00 | 0.01 | 0.01 | 61 | 1023.4 |
| 20260901192747 | 93 | 141 | 3.0 | 5.0 | 0.00 | 0.01 | 0.01 | 60 | 1023.5 |
| 20260901192243 | 92 | 189 | 1.0 | 6.0 | 0.00 | 0.01 | 0.01 | 60 | 1023.9 |
| 20260901191738 | 92 | 105 | 3.0 | 6.0 | 0.00 | 0.01 | 0.01 | 61 | 1023.8 |
| 20260901191234 | 92 | 65 | 2.0 | 6.0 | 0.00 | 0.01 | 0.01 | 63 | 1023.7 |
| 20260901190729 | 92 | 120 | 3.0 | 3.0 | 0.00 | 0.01 | 0.01 | 60 | 1024.1 |
| 20260901190224 | 90 | 118 | 3.0 | 6.0 | 0.00 | 0.01 | 0.01 | 63 | 1024.0 |
| 20260901185722 | 91 | 122 | 2.0 | 2.0 | 0.00 | 0.01 | 0.01 | 63 | 1024.2 |
| 20260901185221 | 91 | 131 | 1.0 | 6.0 | 0.00 | 0.01 | 0.01 | 62 | 1024.3 |
| 20260901184717 | 92 | 122 | 2.0 | 6.0 | 0.00 | 0.01 | 0.01 | 62 | 1024.3 |
| 20260901184206 | 92 | 46 | 2.0 | 5.0 | 0.00 | 0.01 | 0.01 | 62 | 1024.1 |
| 20260901183702 | 92 | 129 | 1.0 | 3.0 | 0.00 | 0.01 | 0.01 | 63 | 1024.2 |
| 20260901183201 | 91 | 84 | 5.0 | 7.0 | 0.00 | 0.01 | 0.01 | 64 | 1024.8 |
| 20260901182657 | 91 | 147 | 1.0 | 2.0 | 0.00 | 0.01 | 0.01 | 64 | 1024.8 |
| 20260901182150 | 89 | 96 | 2.0 | 5.0 | 0.00 | 0.01 | 0.01 | 67 | 1024.6 |
| 20260901181645 | 90 | 353 | 3.0 | 3.0 | 0.00 | 0.01 | 0.01 | 68 | 1024.7 |
| 20260901181140 | 91 | 124 | 0.0 | 3.0 | 0.00 | 0.01 | 0.01 | 65 | 1024.6 |
| 20260901180639 | 91 | 55 | 2.0 | 5.0 | 0.00 | 0.01 | 0.01 | 71 | 1024.7 |
| 20260901180134 | 90 | 152 | 0.0 | 5.0 | 0.00 | 0.01 | 0.01 | 68 | 1024.8 |
| 20260901175633 | 91 | 111 | 1.0 | 3.0 | 0.00 | 0.01 | 0.01 | 68 | 1024.8 |
| 20260901175127 | 91 | 147 | 0.0 | 2.0 | 0.00 | 0.01 | 0.01 | 68 | 1024.8 |
| 20260901174623 | 90 | 50 | 3.0 | 6.0 | 0.00 | 0.01 | 0.01 | 69 | 1024.8 |
| 20260901174119 | 89 | 82 | 2.0 | 3.0 | 0.00 | 0.01 | 0.01 | 70 | 1025.0 |
| 20260901173614 | 92 | 354 | 2.0 | 3.0 | 0.00 | 0.01 | 0.01 | 66 | 1025.0 |
| 20260901173109 | 92 | 130 | 0.0 | 3.0 | 0.00 | 0.01 | 0.01 | 66 | 1025.1 |
| 20260901172604 | 91 | 124 | 1.0 | 5.0 | 0.00 | 0.01 | 0.01 | 70 | 1025.1 |
| 20260901172102 | 89 | 126 | 1.0 | 3.0 | 0.00 | 0.01 | 0.01 | 72 | 1025.1 |
| 20260901171601 | 91 | 215 | 1.0 | 2.0 | 0.00 | 0.01 | 0.01 | 69 | 1025.1 |
| 20260901171056 | 90 | 112 | 0.0 | 2.0 | 0.00 | 0.01 | 0.01 | 66 | 1025.2 |
| 20260901170555 | 90 | 159 | 0.0 | 3.0 | 0.00 | 0.01 | 0.01 | 67 | 1025.1 |
| 20260901170050 | 89 | 98 | 1.0 | 2.0 | 0.00 | 0.01 | 0.01 | 73 | 1025.3 |
| 20260901165550 | 89 | 109 | 1.0 | 3.0 | 0.00 | 0.01 | 0.01 | 73 | 1025.4 |
| 20260901165045 | 90 | 50 | 2.0 | 5.0 | 0.00 | 0.01 | 0.01 | 74 | 1025.5 |
| 20260901164541 | 89 | 135 | 0.0 | 2.0 | 0.00 | 0.01 | 0.01 | 74 | 1025.2 |
| 20260901164036 | 88 | 29 | 3.0 | 6.0 | 0.00 | 0.01 | 0.01 | 76 | 1025.2 |
| 20260901163531 | 89 | 181 | 1.0 | 3.0 | 0.00 | 0.01 | 0.01 | 72 | 1025.4 |
| 20260901163030 | 88 | 99 | 6.0 | 7.0 | 0.00 | 0.01 | 0.01 | 72 | 1025.1 |
| 20260901162531 | 88 | 110 | 0.0 | 2.0 | 0.00 | 0.01 | 0.01 | 73 | 1025.5 |
| 20260901162030 | 87 | 132 | 4.0 | 7.0 | 0.00 | 0.01 | 0.01 | 73 | 1025.5 |
| 20260901161529 | 88 | 55 | 2.0 | 3.0 | 0.00 | 0.01 | 0.01 | 77 | 1025.6 |
| 20260901161029 | 88 | 98 | 4.0 | 8.0 | 0.00 | 0.01 | 0.01 | 73 | 1025.9 |
| 20260901160525 | 89 | 53 | 3.0 | 5.0 | 0.00 | 0.01 | 0.01 | 72 | 1025.7 |
| 20260901160020 | 88 | 108 | 0.0 | 2.0 | 0.00 | 0.01 | 0.01 | 74 | 1025.6 |
| 20260901155514 | 88 | 161 | 0.0 | 3.0 | 0.00 | 0.01 | 0.01 | 74 | 1025.8 |
| 20260901155010 | 87 | 123 | 1.0 | 5.0 | 0.00 | 0.01 | 0.01 | 73 | 1025.9 |
| 20260901154509 | 86 | 102 | 3.0 | 6.0 | 0.00 | 0.01 | 0.01 | 77 | 1025.9 |
| 20260901154004 | 87 | 26 | 1.0 | 3.0 | 0.00 | 0.01 | 0.01 | 75 | 1025.9 |
| 20260901153459 | 87 | 132 | 2.0 | 6.0 | 0.00 | 0.01 | 0.01 | 74 | 1025.8 |
| 20260901152958 | 86 | 60 | 1.0 | 2.0 | 0.00 | 0.01 | 0.01 | 77 | 1025.9 |
| 20260901152453 | 86 | 338 | 5.0 | 7.0 | 0.00 | 0.01 | 0.01 | 75 | 1026.1 |
| 20260901151952 | 87 | 350 | 3.0 | 3.0 | 0.00 | 0.01 | 0.01 | 77 | 1026.1 |
| 20260901151447 | 86 | 161 | 1.0 | 3.0 | 0.00 | 0.01 | 0.01 | 76 | 1026.3 |
| 20260901150946 | 86 | 334 | 2.0 | 5.0 | 0.00 | 0.01 | 0.01 | 79 | 1026.3 |
| 20260901150444 | 86 | 327 | 2.0 | 6.0 | 0.00 | 0.01 | 0.01 | 79 | 1026.2 |
| 20260901145942 | 85 | 339 | 2.0 | 5.0 | 0.00 | 0.01 | 0.01 | 79 | 1026.1 |
| 20260901145437 | 86 | 124 | 0.0 | 2.0 | 0.00 | 0.01 | 0.01 | 77 | 1026.0 |
| 20260901144932 | 85 | 116 | 0.0 | 2.0 | 0.00 | 0.01 | 0.01 | 79 | 1026.1 |
| 20260901144427 | 85 | 349 | 3.0 | 5.0 | 0.00 | 0.01 | 0.01 | 78 | 1026.2 |
| 20260901143923 | 86 | 98 | 1.0 | 2.0 | 0.00 | 0.01 | 0.01 | 79 | 1025.8 |
| 20260901143419 | 85 | 93 | 0.0 | 2.0 | 0.00 | 0.01 | 0.01 | 79 | 1026.0 |